OpenBCM V1.13 (Linux)

Packet Radio Mailbox

DB0FHN

[JN59NK Nuernberg]

 Login: GUEST





  
LU1HVK > KEP      24.09.19 07:34l 252 Lines 12372 Bytes #999 (0) @ WW
BID : 32295_LU1HVK
Read: DJ6UX DF7EAV GUEST
Subj: TLE 24 09
Path: DB0FHN<DB0BLO<DB0ERF<IZ3LSV<I0OJJ<VE2PKT<N3HYM<IV3BVK<IK5FKA<LU9HGS<
      LU1HVK
Sent: 190924/0522Z 32295@LU1HVK.2594.CBA.ARG.SA LinBPQ6.0.18

>From lu1hvk%lu1hvk.2594.cba.arg.sa@i0ojj.ampr.org Tue Sep 24 07:25:50 2019
Received: from i0ojj.ampr.org by i0ojj.ampr.org (JNOS2.0k.3b2) with SMTP
	id AA27427 ; Tue, 24 Sep 2019 07:25:50 +0200
Message-Id: <32295_LU1HVK@ve2pkt.bbs>
>From: lu1hvk@lu1hvk.2594.cba.arg.sa
X-JNOS-User-Port: Telnet   (ve2pkt @ 144.172.216.109)  -> Sending message

                         _    _   _ _ _   ___     ___  __
                        | |  | | | / | | | \ \   / / |/ /
                        | |  | | | | | |_| |\ \ / /| ' /
                        | |__| |_| | |  _  | \ V / | . \
                        |_____\___/|_|_| |_|  \_/  |_|\_\

     BBS/NODO - CORDOBA (LEONES-FF87UH) - LU1HVK-4 NODO - LU1HVK-3 APRS

+----------------------------------------------------------------------------+
OSCAR 7
1  7530U 74089B   19266.83599839 -.00000020 +00000-0 +15614-3 0  9994
2  7530 101.7557 233.5393 0012139 157.9311 315.8342 12.53639950052459
OSCAR 11 (UoSAT 2)
1 14781U 84021B   19266.85394523 +.00000055 +00000-0 +12863-4 0  9993
2 14781 097.6069 286.9528 0008653 011.0567 349.0836 14.83107364892168
OSCAR 19 (LUSAT)
1 20442U 90005G   19266.86825450 -.00000012 +00000-0 +11864-4 0  9996
2 20442 098.6550 208.7347 0010954 219.1503 140.8889 14.32933158550230
EYESAT A
1 22825U 93061C   19266.89333933 +.00000002 +00000-0 +18856-4 0  9997
2 22825 098.9112 257.7825 0009483 077.4019 282.8222 14.30066836355577
ITAMSAT
1 22826U 93061D   19266.80240456 -.00000001 +00000-0 +17657-4 0  9994
2 22826 098.9051 257.6687 0009954 067.5367 292.6868 14.30400778355789
RADIO ROSTO
1 23439U 94085A   19266.89818841 -.00000038 +00000-0 +12008-3 0  9994
2 23439 064.8174 318.9314 0145398 094.3394 267.4158 11.27568174018851
JAS 2
1 24278U 96046B   19266.63869356 +.00000012 +00000-0 +49392-4 0  9992
2 24278 098.5522 046.9531 0350132 348.8529 010.4996 13.53093281140668
TECHSAT 1B
1 25397U 98043D   19266.88817123 -.00000014 +00000-0 +12897-4 0  9999
2 25397 098.6943 205.8793 0002332 101.8574 258.2866 14.23670888101485
ISS (ZARYA)
1 25544U 98067A   19267.18490741  .00000632  00000-0  19051-4 0  9990
2 25544  51.6437 230.2932 0007540  79.7492 108.6927 15.50104283190612
PCSAT
1 26931U 01043C   19266.68126470 -.00000053 +00000-0 +11555-4 0  9997
2 26931 067.0498 113.4001 0007433 270.6029 089.4220 14.30552938938779
SAUDISAT 1C
1 27607U 02058C   19266.73510393 -.00000044 +00000-0 +14734-4 0  9994
2 27607 064.5537 112.8974 0076565 237.7020 121.6651 14.75572699901227
CUTE-1
1 27844U 03031E   19266.81177170  .00000049  00000-0  41945-4 0  9998
2 27844  98.6855 273.5770 0010937 108.0992 252.1378 14.22195474842098
CUBESAT XI 4
1 27848U 03031J   19266.83160608 +.00000036 +00000-0 +36298-4 0  9993
2 27848 098.6931 274.1168 0010733 118.6622 241.5636 14.21788494841914
MOZHAYETS 4
1 27939U 03042A   19266.77948649  .00000168  00000-0  38762-4 0  9992
2 27939  98.0546  40.7785 0013928 117.3893 242.8735 14.66804458854778
CUBESAT XI 5
1 28895U 05043F   19266.37722305  .00000116  00000-0  31118-4 0  9993
2 28895  97.9731  45.8704 0017782  49.9100 310.3658 14.63692314741621
CUTE-1.7+APD II
1 32785U 08021C   19266.83444781 +.00000173 +00000-0 +24331-4 0  9997
2 32785 097.5548 261.9907 0011773 305.1913 054.8201 14.88346624618067
DELFI C3
1 32789U 08021G   19266.75748317 +.00001138 +00000-0 +79686-4 0  9999
2 32789 097.4555 313.4554 0013123 147.5974 212.6063 15.07119010621484
SEEDS
1 32791U 08021J   19266.82327858 +.00000359 +00000-0 +41759-4 0  9997
2 32791 097.5311 268.0443 0011775 275.3234 084.6641 14.90871873618501
YUBELEINY
1 32953U 08025A   19266.70808361  .00000020  00000-0  75656-4 0  9999
2 32953  82.4982  84.4260 0018665 278.6070  81.2890 12.43091193514367
PRISM (HITOMI)
1 33493U 09002B   19266.93647551 +.00000826 +00000-0 +77756-4 0  9999
2 33493 098.1203 191.5772 0014128 216.9138 143.1111 14.96733558579683
KKS-1 (KISEKI)
1 33499U 09002H   19266.85571727 +.00000063 +00000-0 +17278-4 0  9993
2 33499 098.3439 108.6369 0007904 255.9429 104.0901 14.75463288573126
SWISSCUBE
1 35932U 09051B   19266.47441095 +.00000101 +00000-0 +33768-4 0  9998
2 35932 098.5974 075.3355 0006818 222.6134 137.4535 14.56310665530820
BEESAT
1 35933U 09051C   19266.67767651  .00000096  00000-0  32704-4 0  9992
2 35933  98.5994  77.3445 0004854 234.8861 125.1881 14.56396644531005
ITUPSAT 1
1 35935U 09051E   19266.72263172 +.00000063 +00000-0 +25577-4 0  9993
2 35935 098.6104 077.6214 0007174 234.2735 125.7795 14.55552848530727
XIWANG-1 (HOPE-1)
1 36122U 09072B   19266.71768136 -.00000036 +00000-0 +15970-4 0  9991
2 36122 100.0766 264.5499 0007807 117.8490 242.3412 13.16351291469646
TISAT 1
1 36799U 10035E   19266.64795291 +.00000437 +00000-0 +50111-4 0  9996
2 36799 098.1683 062.0909 0013389 124.9469 235.3008 14.91158732499011
JUGNU
1 37839U 11058B   19265.95707440 +.00000296 +00000-0 +16169-4 0  9998
2 37839 019.9609 111.0082 0018911 308.5027 196.2847 14.12658906410772
SRMSAT
1 37841U 11058D   19266.14474258 +.00000294 +00000-0 +16474-4 0  9998
2 37841 019.9712 168.6419 0011951 175.8039 330.5917 14.10639227410232
M-CUBED/EXP-1 PRIME
1 37855U 11061F   19266.89582849 +.00000380 +00000-0 +27046-4 0  9998
2 37855 101.7125 212.3894 0173052 148.5550 212.6148 15.05587711430935
HORYU 2
1 38340U 12025D   19266.80579289 +.00000124 +00000-0 +26086-4 0  9993
2 38340 098.3209 308.2684 0011791 168.6561 191.4915 14.75750307385076
STRAND 1
1 39090U 13009E   19266.63005241 +.00000033 +00000-0 +26665-4 0  9994
2 39090 098.4798 110.9249 0009358 008.3390 351.7950 14.35097629344278
SOMP
1 39134U 13015E   19266.85165895 +.00001097 +00000-0 +58948-4 0  9996
2 39134 064.8627 065.6167 0035756 288.2361 071.4876 15.20329211354980
BEESAT 3
1 39135U 13015F   19266.61737144 +.00000576 +00000-0 +38168-4 0  9996
2 39135 064.8675 086.0503 0033982 297.6746 062.0933 15.17605043354565
BEESAT 2
1 39136U 13015G   19266.62537155 +.00000582 +00000-0 +39153-4 0  9990
2 39136 064.8682 090.1239 0025732 302.9804 056.8848 15.17024988354485
CUBEBUG 1
1 39153U 13018D   19266.27048480  .00000147  00000-0  26176-4 0  9999
2 39153  97.9806   3.8655 0015740 243.2694 116.6908 14.80596444346106
ZACUBE
1 39417U 13066B   19266.85277807 +.00000176 +00000-0 +28335-4 0  9997
2 39417 097.5628 274.8950 0060463 075.8400 284.9522 14.81149767315426
TRITON 1
1 39427U 13066M   19266.73055432 +.00000146 +00000-0 +31433-4 0  9993
2 39427 097.6875 238.1681 0112857 214.2257 145.1640 14.67880404312385
GOMX 1
1 39430U 13066Q   19266.71573095  .00000165  00000-0  39272-4 0  9995
2 39430  97.7560 216.9209 0150381 308.7980  49.9874 14.59286975310750
HUMSAT D
1 39433U 13066T   19266.57662163 +.00000121 +00000-0 +17148-4 0  9997
2 39433 097.5448 310.0782 0030087 340.2310 019.7741 14.92251971316340
CUBEBUG 2
1 39440U 13066AA  19266.77027467 +.00000155 +00000-0 +28369-4 0  9993
2 39440 097.6082 259.5036 0081382 128.8977 231.9528 14.75887032313099
FUNCUBE 1
1 39444U 13066AE  19266.73198164 +.00000216 +00000-0 +32702-4 0  9990
2 39444 097.5603 276.8186 0059541 069.8363 290.9242 14.81975762313716
UWE-3
1 39446U 13066AG  19266.74353023 +.00000173 +00000-0 +29357-4 0  9994
2 39446 097.5848 266.5996 0071529 103.0640 257.8569 14.78422088313014
SPROUT
1 39770U 14029E   19266.84186111  .00000360  00000-0  45825-4 0  9993
2 39770  97.8881   9.5275 0009596 122.4861 237.7271 14.87426467289276
UNISAT 6
1 40012U 14033C   19266.61445154 +.00000124 +00000-0 +25775-4 0  9999
2 40012 097.7437 128.9866 0059057 143.9636 216.5576 14.74008081282966
DUCHIFAT 1
1 40021U 14033M   19266.60812659 +.00000422 +00000-0 +48806-4 0  9997
2 40021 097.9232 191.5217 0014370 089.8897 270.3967 14.90684526285982
QB50P1
1 40025U 14033R   19266.80733627 +.00000210 +00000-0 +28257-4 0  9993
2 40025 097.9030 186.3242 0013862 098.6322 261.6466 14.88983871285268
CHUBUSAT 1
1 40300U 14070C   19266.76874508  .00000400  00000-0  20344-4 0  9999
2 40300  97.3189 338.4649 0021305  73.9840  74.4836 15.22173754270788
NUDT-PHONESAT
1 40900U 15049B   19266.88699608 +.00001364 +00000-0 +60867-4 0  9995
2 40900 097.4386 275.2819 0012071 196.8813 247.9403 15.23050956222453
ZDPS 2A
1 40901U 15049C   19266.92015984 +.00000528 +00000-0 +29428-4 0  9999
2 40901 097.4622 271.3497 0012155 219.9939 229.6090 15.17836446221980
ZDPS 2B
1 40902U 15049D   19266.83034900  .00000600  00000-0  33071-4 0  9999
2 40902  97.4575 268.6804 0012180 217.8830 264.5992 15.17688278221947
XW-2A
1 40903U 15049E   19266.79057310  .00001284  00000-0  31964-4 0  9993
2 40903  97.3289 310.0667 0014188 147.8785 272.3453 15.42101986225216
KAITUO 1A
1 40904U 15049F   19266.80525756  .00000695  00000-0  40224-4 0  9994
2 40904  97.4706 267.1681 0013169 228.3002 255.4740 15.15437361221705
OBJECT G
1 40905U 15049G   19266.82207441  .00000081  00000-0  79871-5 0  9995
2 40905  97.4754 264.6340 0014392 223.5324 258.0658 15.14343200221575
XW-2C
1 40906U 15049H   19266.85138047  .00000326  00000-0  20532-4 0  9995
2 40906  97.4710 267.3378 0013492 218.8565 261.4497 15.15754597221714
XW-2D
1 40907U 15049J   19266.81738604 +.00000490 +00000-0 +28959-4 0  9990
2 40907 097.4690 266.9849 0012940 215.5276 267.9936 15.15949499221727
LILACSAT 2
1 40908U 15049K   19266.89178088 -.00000048 +00000-0 +98427-6 0  9992
2 40908 097.4828 265.7818 0014588 224.3521 221.3776 15.13847716221515
XW-2F
1 40910U 15049M   19266.81860160  .00000723  00000-0  39480-4 0  9997
2 40910  97.4656 269.1300 0013857 206.6024 277.4280 15.17423642221749
XW-2B
1 40911U 15049N   19266.85373907  .00000413  00000-0  25010-4 0  9990
2 40911  97.4717 267.6871 0012801 216.2130 262.8526 15.15877741221626
KAITUO 1B
1 40912U 15049P   19266.75468229  .00000664  00000-0  34214-4 0  9996
2 40912  97.4518 272.8607 0014374 187.5040 226.8399 15.19749590222058
